Year,Month,Day,Hour,Minute,Value (Times are PST for windspeed in km/hr)
2007,05,08,00,00,0.10
2007,05,08,00,01,0.10
2007,05,08,00,02,0.00
2007,05,08,00,03,0.30
2007,05,08,00,04,0.50
2007,05,08,00,05,0.00
2007,05,08,00,06,0.00
2007,05,08,00,07,0.10
2007,05,08,00,08,0.00
2007,05,08,00,09,0.00
2007,05,08,00,10,0.00
2007,05,08,00,11,0.00
2007,05,08,00,12,0.10
2007,05,08,00,13,0.00
2007,05,08,00,14,0.00
2007,05,08,00,15,0.20
2007,05,08,00,16,0.00
2007,05,08,00,17,0.00
2007,05,08,00,18,0.00
2007,05,08,00,19,0.10
2007,05,08,00,20,0.00
2007,05,08,00,21,0.00
2007,05,08,00,22,0.10
2007,05,08,00,23,0.50
2007,05,08,00,24,1.00
2007,05,08,00,25,0.50
2007,05,08,00,26,0.20
2007,05,08,00,27,0.10
2007,05,08,00,28,1.20
2007,05,08,00,29,0.60
2007,05,08,00,30,0.30
2007,05,08,00,31,0.10
2007,05,08,00,32,0.00
2007,05,08,00,33,0.20
2007,05,08,00,34,0.00
2007,05,08,00,35,0.00
2007,05,08,00,36,0.00
2007,05,08,00,37,0.10
2007,05,08,00,38,0.40
2007,05,08,00,39,0.60
2007,05,08,00,40,0.30
2007,05,08,00,41,0.30
2007,05,08,00,42,0.00
2007,05,08,00,43,0.00
2007,05,08,00,44,1.00
2007,05,08,00,45,0.00
2007,05,08,00,46,0.20
2007,05,08,00,47,0.50
2007,05,08,00,48,0.30
2007,05,08,00,49,0.00
2007,05,08,00,50,0.20
2007,05,08,00,51,0.10
2007,05,08,00,52,0.10
2007,05,08,00,53,0.10
2007,05,08,00,54,1.60
2007,05,08,00,55,0.20
2007,05,08,00,56,0.00
2007,05,08,00,57,0.50
2007,05,08,00,58,0.70
2007,05,08,00,59,0.30
2007,05,08,01,00,1.40
2007,05,08,01,01,0.30
2007,05,08,01,02,1.30
2007,05,08,01,03,0.80
2007,05,08,01,04,0.20
2007,05,08,01,05,0.20
2007,05,08,01,06,0.10
2007,05,08,01,07,0.10
2007,05,08,01,08,0.00
2007,05,08,01,09,0.30
2007,05,08,01,10,0.10
2007,05,08,01,11,0.40
2007,05,08,01,12,0.00
2007,05,08,01,13,0.50
2007,05,08,01,14,0.20
2007,05,08,01,15,0.30
2007,05,08,01,16,0.30
2007,05,08,01,17,0.90
2007,05,08,01,18,0.30
2007,05,08,01,19,0.80
2007,05,08,01,20,0.10
2007,05,08,01,21,0.10
2007,05,08,01,22,0.30
2007,05,08,01,23,1.10
2007,05,08,01,24,0.30
2007,05,08,01,25,0.80
2007,05,08,01,26,0.20
2007,05,08,01,27,1.60
2007,05,08,01,28,1.80
2007,05,08,01,29,0.50
2007,05,08,01,30,0.60
2007,05,08,01,31,0.40
2007,05,08,01,32,1.10
2007,05,08,01,33,1.10
2007,05,08,01,34,0.30
2007,05,08,01,35,0.60
2007,05,08,01,36,0.90
2007,05,08,01,37,0.40
2007,05,08,01,38,0.00
2007,05,08,01,39,0.40
2007,05,08,01,40,0.00
2007,05,08,01,41,0.00
2007,05,08,01,42,0.00
2007,05,08,01,43,0.00
2007,05,08,01,44,0.00
2007,05,08,01,45,0.00
2007,05,08,01,46,0.10
2007,05,08,01,47,0.00
2007,05,08,01,48,0.00
2007,05,08,01,49,0.00
2007,05,08,01,50,0.00
2007,05,08,01,51,0.00
2007,05,08,01,52,0.00
2007,05,08,01,53,0.00
2007,05,08,01,54,0.00
2007,05,08,01,55,0.00
2007,05,08,01,56,0.00
2007,05,08,01,57,0.00
2007,05,08,01,58,0.00
2007,05,08,01,59,0.00
2007,05,08,02,00,0.00
2007,05,08,02,01,0.00
2007,05,08,02,02,0.00
2007,05,08,02,03,0.00
2007,05,08,02,04,0.00
2007,05,08,02,05,0.00
2007,05,08,02,06,0.00
2007,05,08,02,07,0.00
2007,05,08,02,08,0.00
2007,05,08,02,09,0.00
2007,05,08,02,10,0.00
2007,05,08,02,11,0.00
2007,05,08,02,12,0.00
2007,05,08,02,13,0.00
2007,05,08,02,14,0.00
2007,05,08,02,15,0.00
2007,05,08,02,16,0.00
2007,05,08,02,17,0.10
2007,05,08,02,18,0.00
2007,05,08,02,19,0.00
2007,05,08,02,20,0.00
2007,05,08,02,21,0.00
2007,05,08,02,22,0.00
2007,05,08,02,23,0.00
2007,05,08,02,24,0.00
2007,05,08,02,25,0.00
2007,05,08,02,26,0.00
2007,05,08,02,27,0.00
2007,05,08,02,28,0.00
2007,05,08,02,29,0.00
2007,05,08,02,30,0.00
2007,05,08,02,31,0.00
2007,05,08,02,32,0.00
2007,05,08,02,33,0.00
2007,05,08,02,34,0.00
2007,05,08,02,35,0.00
2007,05,08,02,36,0.00
2007,05,08,02,37,0.00
2007,05,08,02,38,0.00
2007,05,08,02,39,0.00
2007,05,08,02,40,0.00
2007,05,08,02,41,0.00
2007,05,08,02,42,0.00
2007,05,08,02,43,0.00
2007,05,08,02,44,0.00
2007,05,08,02,45,0.00
2007,05,08,02,46,0.00
2007,05,08,02,47,0.00
2007,05,08,02,48,0.00
2007,05,08,02,49,0.00
2007,05,08,02,50,0.00
2007,05,08,02,51,0.00
2007,05,08,02,52,0.00
2007,05,08,02,53,0.00
2007,05,08,02,54,0.00
2007,05,08,02,55,0.00
2007,05,08,02,56,0.00
2007,05,08,02,57,0.00
2007,05,08,02,58,0.00
2007,05,08,02,59,0.00
2007,05,08,03,00,0.00
2007,05,08,03,01,0.00
2007,05,08,03,02,0.00
2007,05,08,03,03,0.00
2007,05,08,03,04,0.00
2007,05,08,03,05,0.00
2007,05,08,03,06,0.00
2007,05,08,03,07,0.00
2007,05,08,03,08,0.00
2007,05,08,03,09,0.00
2007,05,08,03,10,0.00
2007,05,08,03,11,0.00
2007,05,08,03,12,0.00
2007,05,08,03,13,0.00
2007,05,08,03,14,0.00
2007,05,08,03,15,0.00
2007,05,08,03,16,0.00
2007,05,08,03,17,0.00
2007,05,08,03,18,0.00
2007,05,08,03,19,0.00
2007,05,08,03,20,0.00
2007,05,08,03,21,0.00
2007,05,08,03,22,0.00
2007,05,08,03,23,0.00
2007,05,08,03,24,0.00
2007,05,08,03,25,0.00
2007,05,08,03,26,0.00
2007,05,08,03,27,0.00
2007,05,08,03,28,0.00
2007,05,08,03,29,0.00
2007,05,08,03,30,0.00
2007,05,08,03,31,0.00
2007,05,08,03,32,0.00
2007,05,08,03,33,0.00
2007,05,08,03,34,0.00
2007,05,08,03,35,0.00
2007,05,08,03,36,0.00
2007,05,08,03,37,0.00
2007,05,08,03,38,0.00
2007,05,08,03,39,0.00
2007,05,08,03,40,0.00
2007,05,08,03,41,0.00
2007,05,08,03,42,0.00
2007,05,08,03,43,0.00
2007,05,08,03,44,0.00
2007,05,08,03,45,0.00
2007,05,08,03,46,0.00
2007,05,08,03,47,0.00
2007,05,08,03,48,0.00
2007,05,08,03,49,0.00
2007,05,08,03,50,0.00
2007,05,08,03,51,0.00
2007,05,08,03,52,0.00
2007,05,08,03,53,0.00
2007,05,08,03,54,0.00
2007,05,08,03,55,0.00
2007,05,08,03,56,0.00
2007,05,08,03,57,0.00
2007,05,08,03,58,0.00
2007,05,08,03,59,0.00
2007,05,08,04,00,0.00
2007,05,08,04,01,0.00
2007,05,08,04,02,0.00
2007,05,08,04,03,0.00
2007,05,08,04,04,0.00
2007,05,08,04,05,0.00
2007,05,08,04,06,0.00
2007,05,08,04,07,0.00
2007,05,08,04,08,0.00
2007,05,08,04,09,0.00
2007,05,08,04,10,0.00
2007,05,08,04,11,0.00
2007,05,08,04,12,0.10
2007,05,08,04,13,0.00
2007,05,08,04,14,0.00
2007,05,08,04,15,0.00
2007,05,08,04,16,0.00
2007,05,08,04,17,0.00
2007,05,08,04,18,0.00
2007,05,08,04,19,0.00
2007,05,08,04,20,0.00
2007,05,08,04,21,0.00
2007,05,08,04,22,0.00
2007,05,08,04,23,0.00
2007,05,08,04,24,0.00
2007,05,08,04,25,0.00
2007,05,08,04,26,0.10
2007,05,08,04,27,0.90
2007,05,08,04,28,0.20
2007,05,08,04,29,0.00
2007,05,08,04,30,0.00
2007,05,08,04,31,0.00
2007,05,08,04,32,0.30
2007,05,08,04,33,0.20
2007,05,08,04,34,0.30
2007,05,08,04,35,0.00
2007,05,08,04,36,0.00
2007,05,08,04,37,0.00
2007,05,08,04,38,0.50
2007,05,08,04,39,1.10
2007,05,08,04,40,0.60
2007,05,08,04,41,0.50
2007,05,08,04,42,0.00
2007,05,08,04,43,0.00
2007,05,08,04,44,0.00
2007,05,08,04,45,0.00
2007,05,08,04,46,0.00
2007,05,08,04,47,0.00
2007,05,08,04,48,0.00
2007,05,08,04,49,0.20
2007,05,08,04,50,0.00
2007,05,08,04,51,0.00
2007,05,08,04,52,0.00
2007,05,08,04,53,0.00
2007,05,08,04,54,0.00
2007,05,08,04,55,0.10
2007,05,08,04,56,0.10
2007,05,08,04,57,0.10
2007,05,08,04,58,0.00
2007,05,08,04,59,0.00
2007,05,08,05,00,0.00
2007,05,08,05,01,0.00
2007,05,08,05,02,0.00
2007,05,08,05,03,0.00
2007,05,08,05,04,0.00
2007,05,08,05,05,0.00
2007,05,08,05,06,0.00
2007,05,08,05,07,0.00
2007,05,08,05,08,0.00
2007,05,08,05,09,0.00
2007,05,08,05,10,0.00
2007,05,08,05,11,0.00
2007,05,08,05,12,0.00
2007,05,08,05,13,0.20
2007,05,08,05,14,0.50
2007,05,08,05,15,0.90
2007,05,08,05,16,0.50
2007,05,08,05,17,0.40
2007,05,08,05,18,0.70
2007,05,08,05,19,0.80
2007,05,08,05,20,0.20
2007,05,08,05,21,0.00
2007,05,08,05,22,0.00
2007,05,08,05,23,0.00
2007,05,08,05,24,0.00
2007,05,08,05,25,0.00
2007,05,08,05,26,0.00
2007,05,08,05,27,0.00
2007,05,08,05,28,0.10
2007,05,08,05,29,0.00
2007,05,08,05,30,0.00
2007,05,08,05,31,0.00
2007,05,08,05,32,0.00
2007,05,08,05,33,0.00
2007,05,08,05,34,0.00
2007,05,08,05,35,0.00
2007,05,08,05,36,0.40
2007,05,08,05,37,0.00
2007,05,08,05,38,0.00
2007,05,08,05,39,0.00
2007,05,08,05,40,0.00
2007,05,08,05,41,0.00
2007,05,08,05,42,0.00
2007,05,08,05,43,0.00
2007,05,08,05,44,0.00
2007,05,08,05,45,0.00
2007,05,08,05,46,0.00
2007,05,08,05,47,0.00
2007,05,08,05,48,0.00
2007,05,08,05,49,0.50
2007,05,08,05,50,0.60
2007,05,08,05,51,1.50
2007,05,08,05,52,1.40
2007,05,08,05,53,0.30
2007,05,08,05,54,0.30
2007,05,08,05,55,0.00
2007,05,08,05,56,0.00
2007,05,08,05,57,0.10
2007,05,08,05,58,0.50
2007,05,08,05,59,0.20
2007,05,08,06,00,0.20
2007,05,08,06,01,1.20
2007,05,08,06,02,1.20
2007,05,08,06,03,1.00
2007,05,08,06,04,0.70
2007,05,08,06,05,0.30
2007,05,08,06,06,0.80
2007,05,08,06,07,0.80
2007,05,08,06,08,0.60
2007,05,08,06,09,1.40
2007,05,08,06,10,1.00
2007,05,08,06,11,0.60
2007,05,08,06,12,1.30
2007,05,08,06,13,3.00
2007,05,08,06,14,2.90
2007,05,08,06,15,1.50
2007,05,08,06,16,0.60
2007,05,08,06,17,0.70
2007,05,08,06,18,0.20
2007,05,08,06,19,1.20
2007,05,08,06,20,0.60
2007,05,08,06,21,0.50
2007,05,08,06,22,0.10
2007,05,08,06,23,1.20
2007,05,08,06,24,0.60
2007,05,08,06,25,1.30
2007,05,08,06,26,1.30
2007,05,08,06,27,0.20
2007,05,08,06,28,0.90
2007,05,08,06,29,0.20
2007,05,08,06,30,0.40
2007,05,08,06,31,0.00
2007,05,08,06,32,1.10
2007,05,08,06,33,1.20
2007,05,08,06,34,0.70
2007,05,08,06,35,0.10
2007,05,08,06,36,0.90
2007,05,08,06,37,1.50
2007,05,08,06,38,0.60
2007,05,08,06,39,0.80
2007,05,08,06,40,0.90
2007,05,08,06,41,0.00
2007,05,08,06,42,0.00
2007,05,08,06,43,0.00
2007,05,08,06,44,1.60
2007,05,08,06,45,1.90
2007,05,08,06,46,0.20
2007,05,08,06,47,0.20
2007,05,08,06,48,0.00
2007,05,08,06,49,1.60
2007,05,08,06,50,1.90
2007,05,08,06,51,1.70
2007,05,08,06,52,1.60
2007,05,08,06,53,1.40
2007,05,08,06,54,3.50
2007,05,08,06,55,1.40
2007,05,08,06,56,2.00
2007,05,08,06,57,1.40
2007,05,08,06,58,0.40
2007,05,08,06,59,1.50
2007,05,08,07,00,1.00
2007,05,08,07,01,1.40
2007,05,08,07,02,2.80
2007,05,08,07,03,0.50
2007,05,08,07,04,3.10
2007,05,08,07,05,4.60
2007,05,08,07,06,2.30
2007,05,08,07,07,1.90
2007,05,08,07,08,0.80
2007,05,08,07,09,0.20
2007,05,08,07,10,0.80
2007,05,08,07,11,2.00
2007,05,08,07,12,1.80
2007,05,08,07,13,0.30
2007,05,08,07,14,0.20
2007,05,08,07,15,0.50
2007,05,08,07,16,0.40
2007,05,08,07,17,0.50
2007,05,08,07,18,0.10
2007,05,08,07,19,0.10
2007,05,08,07,20,0.10
2007,05,08,07,21,0.10
2007,05,08,07,22,0.00
2007,05,08,07,23,0.80
2007,05,08,07,24,0.30
2007,05,08,07,25,0.20
2007,05,08,07,26,1.60
2007,05,08,07,27,0.00
2007,05,08,07,28,0.20
2007,05,08,07,29,0.10
2007,05,08,07,30,0.00
2007,05,08,07,31,0.00
2007,05,08,07,32,0.00
2007,05,08,07,33,0.00
2007,05,08,07,34,0.00
2007,05,08,07,35,0.00
2007,05,08,07,36,0.20
2007,05,08,07,37,0.00
2007,05,08,07,38,0.00
2007,05,08,07,39,0.00
2007,05,08,07,40,0.00
2007,05,08,07,41,0.00
2007,05,08,07,42,0.00
2007,05,08,07,43,0.00
2007,05,08,07,44,0.10
2007,05,08,07,45,0.00
2007,05,08,07,46,0.00
2007,05,08,07,47,0.10
2007,05,08,07,48,0.60
2007,05,08,07,49,0.00
2007,05,08,07,50,0.50
2007,05,08,07,51,0.10
2007,05,08,07,52,0.00
2007,05,08,07,53,0.00
2007,05,08,07,54,0.00
2007,05,08,07,55,0.00
2007,05,08,07,56,0.00
2007,05,08,07,57,0.20
2007,05,08,07,58,0.70
2007,05,08,07,59,1.10
2007,05,08,08,00,0.00
2007,05,08,08,01,0.00
2007,05,08,08,02,0.10
2007,05,08,08,03,0.10
2007,05,08,08,04,0.00
2007,05,08,08,05,0.30
2007,05,08,08,06,0.00
2007,05,08,08,07,0.10
2007,05,08,08,08,0.30
2007,05,08,08,09,1.50
2007,05,08,08,10,0.10
2007,05,08,08,11,0.00
2007,05,08,08,12,0.00
2007,05,08,08,13,0.90
2007,05,08,08,14,0.70
2007,05,08,08,15,1.10
2007,05,08,08,16,1.00
2007,05,08,08,17,0.60
2007,05,08,08,18,0.90
2007,05,08,08,19,1.00
2007,05,08,08,20,1.30
2007,05,08,08,21,2.00
2007,05,08,08,22,1.50
2007,05,08,08,23,2.30
2007,05,08,08,24,1.70
2007,05,08,08,25,2.00
2007,05,08,08,26,2.50
2007,05,08,08,27,2.20
2007,05,08,08,28,1.90
2007,05,08,08,29,1.10
2007,05,08,08,30,0.00
2007,05,08,08,31,1.50
2007,05,08,08,32,1.10
2007,05,08,08,33,1.10
2007,05,08,08,34,1.70
2007,05,08,08,35,0.80
2007,05,08,08,36,0.70
2007,05,08,08,37,1.20
2007,05,08,08,38,1.00
2007,05,08,08,39,0.60
2007,05,08,08,40,2.30
2007,05,08,08,41,0.90
2007,05,08,08,42,1.20
2007,05,08,08,43,0.80
2007,05,08,08,44,2.40
2007,05,08,08,45,3.00
2007,05,08,08,46,2.50
2007,05,08,08,47,2.30
2007,05,08,08,48,0.60
2007,05,08,08,49,1.00
2007,05,08,08,50,2.10
2007,05,08,08,51,3.40
2007,05,08,08,52,2.40
2007,05,08,08,53,2.10
2007,05,08,08,54,1.10
2007,05,08,08,55,1.70
2007,05,08,08,56,0.80
2007,05,08,08,57,0.20
2007,05,08,08,58,1.90
2007,05,08,08,59,0.90
2007,05,08,09,00,1.80
2007,05,08,09,01,2.30
2007,05,08,09,02,1.80
2007,05,08,09,03,1.90
2007,05,08,09,04,2.80
2007,05,08,09,05,1.10
2007,05,08,09,06,2.80
2007,05,08,09,07,4.80
2007,05,08,09,08,4.50
2007,05,08,09,09,2.20
2007,05,08,09,10,1.90
2007,05,08,09,11,2.00
2007,05,08,09,12,1.70
2007,05,08,09,13,2.50
2007,05,08,09,14,3.10
2007,05,08,09,15,0.90
2007,05,08,09,16,2.60
2007,05,08,09,17,2.40
2007,05,08,09,18,1.50
2007,05,08,09,19,1.40
2007,05,08,09,20,0.60
2007,05,08,09,21,1.80
2007,05,08,09,22,1.40
2007,05,08,09,23,3.60
2007,05,08,09,24,3.50
2007,05,08,09,25,1.40
2007,05,08,09,26,2.10
2007,05,08,09,27,2.70
2007,05,08,09,28,1.60
2007,05,08,09,29,2.00
2007,05,08,09,30,1.20
2007,05,08,09,31,2.40
2007,05,08,09,32,3.10
2007,05,08,09,33,1.40
2007,05,08,09,34,4.20
2007,05,08,09,35,3.00
2007,05,08,09,36,2.50
2007,05,08,09,37,2.60
2007,05,08,09,38,1.10
2007,05,08,09,39,1.80
2007,05,08,09,40,2.00
2007,05,08,09,41,1.20
2007,05,08,09,42,1.70
2007,05,08,09,43,2.10
2007,05,08,09,44,1.00
2007,05,08,09,45,2.00
2007,05,08,09,46,3.50
2007,05,08,09,47,1.80
2007,05,08,09,48,1.70
2007,05,08,09,49,1.60
2007,05,08,09,50,4.80
2007,05,08,09,51,1.60
2007,05,08,09,52,1.40
2007,05,08,09,53,1.30
2007,05,08,09,54,2.80
2007,05,08,09,55,2.50
2007,05,08,09,56,3.90
2007,05,08,09,57,4.90
2007,05,08,09,58,5.80
2007,05,08,09,59,4.70
2007,05,08,10,00,1.20
2007,05,08,10,01,3.00
2007,05,08,10,02,4.20
2007,05,08,10,03,5.90
2007,05,08,10,04,4.70
2007,05,08,10,05,6.60
2007,05,08,10,06,4.00
2007,05,08,10,07,6.80
2007,05,08,10,08,5.30
2007,05,08,10,09,4.80
2007,05,08,10,10,3.50
2007,05,08,10,11,4.70
2007,05,08,10,12,5.10
2007,05,08,10,13,1.60
2007,05,08,10,14,2.90
2007,05,08,10,15,7.50
2007,05,08,10,16,5.10
2007,05,08,10,17,3.90
2007,05,08,10,18,4.60
2007,05,08,10,19,3.90
2007,05,08,10,20,7.60
2007,05,08,10,21,7.10
2007,05,08,10,22,5.20
2007,05,08,10,23,7.00
2007,05,08,10,24,2.80
2007,05,08,10,25,3.30
2007,05,08,10,26,4.10
2007,05,08,10,27,6.30
2007,05,08,10,28,5.30
2007,05,08,10,29,5.60
2007,05,08,10,30,4.50
2007,05,08,10,31,4.40
2007,05,08,10,32,6.50
2007,05,08,10,33,6.60
2007,05,08,10,34,6.70
2007,05,08,10,35,7.50
2007,05,08,10,36,5.40
2007,05,08,10,37,7.50
2007,05,08,10,38,9.40
2007,05,08,10,39,5.10
2007,05,08,10,40,5.40
2007,05,08,10,41,8.70
2007,05,08,10,42,7.70
2007,05,08,10,43,8.50
2007,05,08,10,44,7.70
2007,05,08,10,45,7.50
2007,05,08,10,46,5.20
2007,05,08,10,47,10.20
2007,05,08,10,48,8.50
2007,05,08,10,49,8.20
2007,05,08,10,50,7.30
2007,05,08,10,51,12.30
2007,05,08,10,52,7.60
2007,05,08,10,53,4.80
2007,05,08,10,54,6.30
2007,05,08,10,55,9.90
2007,05,08,10,56,5.60
2007,05,08,10,57,11.40
2007,05,08,10,58,10.20
2007,05,08,10,59,11.30
2007,05,08,11,00,11.60
2007,05,08,11,01,13.80
2007,05,08,11,02,10.60
2007,05,08,11,03,7.30
2007,05,08,11,04,10.80
2007,05,08,11,05,13.40
2007,05,08,11,06,9.70
2007,05,08,11,07,10.40
2007,05,08,11,08,10.60
2007,05,08,11,09,13.70
2007,05,08,11,10,13.30
2007,05,08,11,11,11.10
2007,05,08,11,12,11.40
2007,05,08,11,13,15.40
2007,05,08,11,14,13.10
2007,05,08,11,15,12.80
2007,05,08,11,16,19.60
2007,05,08,11,17,20.40
2007,05,08,11,18,10.20
2007,05,08,11,19,11.50
2007,05,08,11,20,13.40
2007,05,08,11,21,14.10
2007,05,08,11,22,9.30
2007,05,08,11,23,10.10
2007,05,08,11,24,9.10
2007,05,08,11,25,8.90
2007,05,08,11,26,11.40
2007,05,08,11,27,5.60
2007,05,08,11,28,3.10
2007,05,08,11,29,7.60
2007,05,08,11,30,4.30
2007,05,08,11,31,6.60
2007,05,08,11,32,6.70
2007,05,08,11,33,9.90
2007,05,08,11,34,8.90
2007,05,08,11,35,8.80
2007,05,08,11,36,9.80
2007,05,08,11,37,12.70
2007,05,08,11,38,14.40
2007,05,08,11,39,14.30
2007,05,08,11,40,13.00
2007,05,08,11,41,12.40
2007,05,08,11,42,13.20
2007,05,08,11,43,15.80
2007,05,08,11,44,15.50
2007,05,08,11,45,16.50
2007,05,08,11,46,17.70
2007,05,08,11,47,15.80
2007,05,08,11,48,15.90
2007,05,08,11,49,11.50
2007,05,08,11,50,16.70
2007,05,08,11,51,15.10
2007,05,08,11,52,16.00
2007,05,08,11,53,9.70
2007,05,08,11,54,12.00
2007,05,08,11,55,11.50
2007,05,08,11,56,12.90
2007,05,08,11,57,14.30
2007,05,08,11,58,14.90
2007,05,08,11,59,11.60
2007,05,08,12,00,11.00
2007,05,08,12,01,17.40
2007,05,08,12,02,14.60
2007,05,08,12,03,10.20
2007,05,08,12,04,10.60
2007,05,08,12,05,15.00
2007,05,08,12,06,17.40
2007,05,08,12,07,11.30
2007,05,08,12,08,14.60
2007,05,08,12,09,17.20
2007,05,08,12,10,16.80
2007,05,08,12,11,16.70
2007,05,08,12,12,12.70
2007,05,08,12,13,17.00
2007,05,08,12,14,13.40
2007,05,08,12,15,13.40
2007,05,08,12,16,10.30
2007,05,08,12,17,14.20
2007,05,08,12,18,17.10
2007,05,08,12,19,17.00
2007,05,08,12,20,18.00
2007,05,08,12,21,17.80
2007,05,08,12,22,13.40
2007,05,08,12,23,11.60
2007,05,08,12,24,14.50
2007,05,08,12,25,18.60
2007,05,08,12,26,12.50
2007,05,08,12,27,17.30
2007,05,08,12,28,20.50
2007,05,08,12,29,17.90
2007,05,08,12,30,23.40
2007,05,08,12,31,26.80
2007,05,08,12,32,21.20
2007,05,08,12,33,17.80
2007,05,08,12,34,22.90
2007,05,08,12,35,20.20
2007,05,08,12,36,16.70
2007,05,08,12,37,23.70
2007,05,08,12,38,20.30
2007,05,08,12,39,13.80
2007,05,08,12,40,23.50
2007,05,08,12,41,19.80
2007,05,08,12,42,33.00
2007,05,08,12,43,24.30
2007,05,08,12,44,29.70
2007,05,08,12,45,26.10
2007,05,08,12,46,18.30
2007,05,08,12,47,21.70
2007,05,08,12,48,31.70
2007,05,08,12,49,25.90
2007,05,08,12,50,27.80
2007,05,08,12,51,32.40
2007,05,08,12,52,23.50
2007,05,08,12,53,19.60
2007,05,08,12,54,17.10
2007,05,08,12,55,28.20
2007,05,08,12,56,29.40
2007,05,08,12,57,26.00
2007,05,08,12,58,20.60
2007,05,08,12,59,34.50
2007,05,08,13,00,26.60
2007,05,08,13,01,26.60
2007,05,08,13,02,25.30
2007,05,08,13,03,20.90
2007,05,08,13,04,21.10
2007,05,08,13,05,22.00
2007,05,08,13,06,29.30
2007,05,08,13,07,22.20
2007,05,08,13,08,21.60
2007,05,08,13,09,36.10
2007,05,08,13,10,31.90
2007,05,08,13,11,26.10
2007,05,08,13,12,23.30
2007,05,08,13,13,23.20
2007,05,08,13,14,32.10
2007,05,08,13,15,22.10
2007,05,08,13,16,30.60
2007,05,08,13,17,25.50
2007,05,08,13,18,29.20
2007,05,08,13,19,26.30
2007,05,08,13,20,16.90
2007,05,08,13,21,20.40
2007,05,08,13,22,31.70
2007,05,08,13,23,28.70
2007,05,08,13,24,25.20
2007,05,08,13,25,19.30
2007,05,08,13,26,30.50
2007,05,08,13,27,26.50
2007,05,08,13,28,19.10
2007,05,08,13,29,27.70
2007,05,08,13,30,30.80
2007,05,08,13,31,27.70
2007,05,08,13,32,19.80
2007,05,08,13,33,25.70
2007,05,08,13,34,26.60
2007,05,08,13,35,22.70
2007,05,08,13,36,20.30
2007,05,08,13,37,30.40
2007,05,08,13,38,18.50
2007,05,08,13,39,29.00
2007,05,08,13,40,34.20
2007,05,08,13,41,32.00
2007,05,08,13,42,32.10
2007,05,08,13,43,32.80
2007,05,08,13,44,28.50
2007,05,08,13,45,23.20
2007,05,08,13,46,24.20
2007,05,08,13,47,39.30
2007,05,08,13,48,50.00
2007,05,08,13,49,28.00
2007,05,08,13,50,34.50
2007,05,08,13,51,44.30
2007,05,08,13,52,36.00
2007,05,08,13,53,36.60
2007,05,08,13,54,33.80
2007,05,08,13,55,33.10
2007,05,08,13,56,39.60
2007,05,08,13,57,34.60
2007,05,08,13,58,25.70
2007,05,08,13,59,38.10
2007,05,08,14,00,33.10
2007,05,08,14,01,36.00
2007,05,08,14,02,31.10
2007,05,08,14,03,34.00
2007,05,08,14,04,38.90
2007,05,08,14,05,32.10
2007,05,08,14,06,29.50
2007,05,08,14,07,25.90
2007,05,08,14,08,27.20
2007,05,08,14,09,29.60
2007,05,08,14,10,29.70
2007,05,08,14,11,23.30
2007,05,08,14,12,43.40
2007,05,08,14,13,40.00
2007,05,08,14,14,36.90
2007,05,08,14,15,36.40
2007,05,08,14,16,30.10
2007,05,08,14,17,31.60
2007,05,08,14,18,39.60
2007,05,08,14,19,46.20
2007,05,08,14,20,35.30
2007,05,08,14,21,35.40
2007,05,08,14,22,29.40
2007,05,08,14,23,31.90
2007,05,08,14,24,32.40
2007,05,08,14,25,37.50
2007,05,08,14,26,31.40
2007,05,08,14,27,36.40
2007,05,08,14,28,34.00
2007,05,08,14,29,30.90
2007,05,08,14,30,25.50
2007,05,08,14,31,31.70
2007,05,08,14,32,23.80
2007,05,08,14,33,26.80
2007,05,08,14,34,27.40
2007,05,08,14,35,33.30
2007,05,08,14,36,24.40
2007,05,08,14,37,26.60
2007,05,08,14,38,32.30
2007,05,08,14,39,37.20
2007,05,08,14,40,22.20
2007,05,08,14,41,32.00
2007,05,08,14,42,23.80
2007,05,08,14,43,26.10
2007,05,08,14,44,30.30
2007,05,08,14,45,29.60
2007,05,08,14,46,22.50
2007,05,08,14,47,24.10
2007,05,08,14,48,26.50
2007,05,08,14,49,34.10
2007,05,08,14,50,30.90
2007,05,08,14,51,32.90
2007,05,08,14,52,30.00
2007,05,08,14,53,38.40
2007,05,08,14,54,35.10
2007,05,08,14,55,25.00
2007,05,08,14,56,31.30
2007,05,08,14,57,34.50
2007,05,08,14,58,34.00
2007,05,08,14,59,32.20
2007,05,08,15,00,32.70
2007,05,08,15,01,39.00
2007,05,08,15,02,27.80
2007,05,08,15,03,36.80
2007,05,08,15,04,31.30
2007,05,08,15,05,34.50
2007,05,08,15,06,35.70
2007,05,08,15,07,25.30
2007,05,08,15,08,41.00
2007,05,08,15,09,33.10
2007,05,08,15,10,28.80
2007,05,08,15,11,24.90
2007,05,08,15,12,32.30
2007,05,08,15,13,32.30
2007,05,08,15,14,34.80
2007,05,08,15,15,27.40
2007,05,08,15,16,27.40
2007,05,08,15,17,24.90
2007,05,08,15,18,28.20
2007,05,08,15,19,35.30
2007,05,08,15,20,30.30
2007,05,08,15,21,22.50
2007,05,08,15,22,28.50
2007,05,08,15,23,25.00
2007,05,08,15,24,27.20
2007,05,08,15,25,25.00
2007,05,08,15,26,28.40
2007,05,08,15,27,26.70
2007,05,08,15,28,31.00
2007,05,08,15,29,26.40
2007,05,08,15,30,32.50
2007,05,08,15,31,29.40
2007,05,08,15,32,35.60
2007,05,08,15,33,26.20
2007,05,08,15,34,29.50
2007,05,08,15,35,22.40
2007,05,08,15,36,21.40
2007,05,08,15,37,29.50
2007,05,08,15,38,18.10
2007,05,08,15,39,31.00
2007,05,08,15,40,20.80
2007,05,08,15,41,27.60
2007,05,08,15,42,35.40
2007,05,08,15,43,31.30
2007,05,08,15,44,27.30
2007,05,08,15,45,28.60
2007,05,08,15,46,31.20
2007,05,08,15,47,35.30
2007,05,08,15,48,29.40
2007,05,08,15,49,28.90
2007,05,08,15,50,25.90
2007,05,08,15,51,24.30
2007,05,08,15,52,24.80
2007,05,08,15,53,29.80
2007,05,08,15,54,30.60
2007,05,08,15,55,39.40
2007,05,08,15,56,26.30
2007,05,08,15,57,29.20
2007,05,08,15,58,27.50
2007,05,08,15,59,28.70
2007,05,08,16,00,25.90
2007,05,08,16,01,26.20
2007,05,08,16,02,30.00
2007,05,08,16,03,27.00
2007,05,08,16,04,26.80
2007,05,08,16,05,26.70
2007,05,08,16,06,22.50
2007,05,08,16,07,32.70
2007,05,08,16,08,32.70
2007,05,08,16,09,29.00
2007,05,08,16,10,34.20
2007,05,08,16,11,29.00
2007,05,08,16,12,24.90
2007,05,08,16,13,27.10
2007,05,08,16,14,29.50
2007,05,08,16,15,28.50
2007,05,08,16,16,21.00
2007,05,08,16,17,27.90
2007,05,08,16,18,28.50
2007,05,08,16,19,26.50
2007,05,08,16,20,23.30
2007,05,08,16,21,25.40
2007,05,08,16,22,19.20
2007,05,08,16,23,27.80
2007,05,08,16,24,26.00
2007,05,08,16,25,22.40
2007,05,08,16,26,23.30
2007,05,08,16,27,20.80
2007,05,08,16,28,32.50
2007,05,08,16,29,22.00
2007,05,08,16,30,27.80
2007,05,08,16,31,30.50
2007,05,08,16,32,28.80
2007,05,08,16,33,20.60
2007,05,08,16,34,31.50
2007,05,08,16,35,27.50
2007,05,08,16,36,23.70
2007,05,08,16,37,24.10
2007,05,08,16,38,24.00
2007,05,08,16,39,18.40
2007,05,08,16,40,26.00
2007,05,08,16,41,24.90
2007,05,08,16,42,22.50
2007,05,08,16,43,21.70
2007,05,08,16,44,26.30
2007,05,08,16,45,26.90
2007,05,08,16,46,33.70
2007,05,08,16,47,28.70
2007,05,08,16,48,22.80
2007,05,08,16,49,23.90
2007,05,08,16,50,21.70
2007,05,08,16,51,23.70
2007,05,08,16,52,26.90
2007,05,08,16,53,16.30
2007,05,08,16,54,24.80
2007,05,08,16,55,31.90
2007,05,08,16,56,24.70
2007,05,08,16,57,24.90
2007,05,08,16,58,29.40
2007,05,08,16,59,32.70
2007,05,08,17,00,19.50
2007,05,08,17,01,30.30
2007,05,08,17,02,22.40
2007,05,08,17,03,8.90
2007,05,08,17,04,29.40
2007,05,08,17,05,24.80
2007,05,08,17,06,18.00
2007,05,08,17,07,15.20
2007,05,08,17,08,12.80
2007,05,08,17,09,21.70
2007,05,08,17,10,22.30
2007,05,08,17,11,21.20
2007,05,08,17,12,17.50
2007,05,08,17,13,29.90
2007,05,08,17,14,20.90
2007,05,08,17,15,22.90
2007,05,08,17,16,22.90
2007,05,08,17,17,17.90
2007,05,08,17,18,15.30
2007,05,08,17,19,16.20
2007,05,08,17,20,16.20
2007,05,08,17,21,22.60
2007,05,08,17,22,34.00
2007,05,08,17,23,25.10
2007,05,08,17,24,15.80
2007,05,08,17,25,20.30
2007,05,08,17,26,17.10
2007,05,08,17,27,16.30
2007,05,08,17,28,19.50
2007,05,08,17,29,24.10
2007,05,08,17,30,20.60
2007,05,08,17,31,27.00
2007,05,08,17,32,29.70
2007,05,08,17,33,19.10
2007,05,08,17,34,23.60
2007,05,08,17,35,25.20
2007,05,08,17,36,17.60
2007,05,08,17,37,21.80
2007,05,08,17,38,23.10
2007,05,08,17,39,20.80
2007,05,08,17,40,17.60
2007,05,08,17,41,24.80
2007,05,08,17,42,19.20
2007,05,08,17,43,19.20
2007,05,08,17,44,30.50
2007,05,08,17,45,32.40
2007,05,08,17,46,21.10
2007,05,08,17,47,18.50
2007,05,08,17,48,22.20